AFR647 FMEE-LFPG

Flight info

Callsign AFR647
Flight time N/A
Altitude 34000
Route UVENA2J UVENA UN304 DENLI/N0495F350 UN304 APKAK/N0491F360 UN304 DWA DCT XADOX DCT KONET/N0488F370 UG650 RASKA/N0491F360 T513 EGMEG/N0488F370 G660 JDW/N0485F380 M686 OTEMO T55 KUNKI P751 METRU DCT OLGAT/N0477F400 DCT PISIP DCT VIE DCT RUPAX DCT ERPOG DCT UTENO DCT OSBUL DCT CERVI DCT MOLUS DCT UNKIR/N0476F380 DCT GIVRI DCT TINIL
Aircraft B772/H-SDE2E3FGHIJ5LORVWXY/LB1D1

Departure

Time N/A
Airport Roland Garros Airport (FMEE)

Arrival

Time 2026-05-03 20:44
Airport Charles de Gaulle International Airport (LFPG)
Time Latitude Longitude Altitude Speed Heading
2026-05-03 20:15 47.40945 5.24619 33672 ft 484 kts 326°
2026-05-03 20:15 47.43944 5.22159 32872 ft 488 kts 326°
2026-05-03 20:15 47.46960 5.19682 32039 ft 493 kts 326°
2026-05-03 20:15 47.49935 5.17236 31293 ft 495 kts 326°
2026-05-03 20:16 47.52991 5.14722 30652 ft 495 kts 326°
2026-05-03 20:16 47.55995 5.12247 30188 ft 492 kts 326°
2026-05-03 20:16 47.58919 5.09610 29754 ft 483 kts 319°
2026-05-03 20:16 47.61500 5.06587 29332 ft 471 kts 315°
2026-05-03 20:17 47.64027 5.03438 28804 ft 464 kts 315°
2026-05-03 20:17 47.66501 5.00335 28355 ft 455 kts 315°
2026-05-03 20:17 47.68883 4.97347 28285 ft 439 kts 315°
2026-05-03 20:17 47.71188 4.94451 28176 ft 425 kts 315°
2026-05-03 20:18 47.73440 4.91617 28005 ft 412 kts 314°
2026-05-03 20:18 47.75626 4.88854 27709 ft 409 kts 314°
2026-05-03 20:18 47.77818 4.86064 27210 ft 425 kts 314°
2026-05-03 20:18 47.80086 4.83184 26726 ft 423 kts 315°
2026-05-03 20:19 47.82289 4.80387 26304 ft 417 kts 315°
2026-05-03 20:19 47.84496 4.77583 25905 ft 411 kts 315°
2026-05-03 20:19 47.86657 4.74832 25488 ft 410 kts 315°
2026-05-03 20:19 47.88831 4.72060 25064 ft 409 kts 315°
2026-05-03 20:20 47.91030 4.69255 24655 ft 407 kts 315°
2026-05-03 20:20 47.93201 4.66481 24239 ft 404 kts 315°
2026-05-03 20:20 47.95337 4.63750 23819 ft 401 kts 315°
2026-05-03 20:20 47.97449 4.61046 23426 ft 400 kts 315°
2026-05-03 20:21 47.99552 4.58351 23027 ft 398 kts 315°
2026-05-03 20:21 48.01658 4.55649 22626 ft 395 kts 315°
2026-05-03 20:21 48.03723 4.52997 22232 ft 392 kts 315°
2026-05-03 20:21 48.05774 4.50360 21830 ft 390 kts 315°
2026-05-03 20:22 48.07857 4.47680 21430 ft 388 kts 315°
2026-05-03 20:22 48.09890 4.45060 21044 ft 386 kts 315°
2026-05-03 20:22 48.11921 4.42440 20649 ft 382 kts 315°
2026-05-03 20:22 48.13925 4.39852 20269 ft 380 kts 315°
2026-05-03 20:23 48.15951 4.37232 19882 ft 378 kts 315°
2026-05-03 20:23 48.17925 4.34679 19655 ft 371 kts 315°
2026-05-03 20:23 48.19883 4.32140 20005 ft 376 kts 315°
2026-05-03 20:23 48.21891 4.29533 20017 ft 380 kts 315°
2026-05-03 20:24 48.23882 4.26952 19764 ft 372 kts 315°
2026-05-03 20:24 48.25811 4.24409 19251 ft 369 kts 311°
2026-05-03 20:24 48.27512 4.21546 18824 ft 362 kts 306°
2026-05-03 20:24 48.29100 4.18673 18764 ft 347 kts 305°
2026-05-03 20:25 48.30618 4.15913 18729 ft 332 kts 305°
2026-05-03 20:25 48.32075 4.13256 18548 ft 325 kts 304°
2026-05-03 20:25 48.33508 4.10637 18144 ft 324 kts 305°
2026-05-03 20:25 48.34942 4.08013 17729 ft 323 kts 305°
2026-05-03 20:26 48.36378 4.05388 17363 ft 321 kts 305°
2026-05-03 20:26 48.37785 4.02816 17022 ft 319 kts 305°
2026-05-03 20:26 48.39205 4.00218 16682 ft 317 kts 305°
2026-05-03 20:26 48.40604 3.97655 16346 ft 314 kts 305°
2026-05-03 20:27 48.41993 3.95108 16025 ft 312 kts 306°
2026-05-03 20:27 48.43355 3.92607 15694 ft 311 kts 306°
2026-05-03 20:27 48.44729 3.90083 15356 ft 309 kts 306°
2026-05-03 20:27 48.46081 3.87596 15018 ft 307 kts 306°
2026-05-03 20:28 48.47429 3.85116 14681 ft 304 kts 306°
2026-05-03 20:28 48.48778 3.82631 14345 ft 302 kts 306°
2026-05-03 20:28 48.50099 3.80194 14028 ft 300 kts 306°
2026-05-03 20:28 48.51417 3.77762 13682 ft 299 kts 306°
2026-05-03 20:29 48.52750 3.75299 13323 ft 298 kts 306°
2026-05-03 20:29 48.54015 3.72863 12948 ft 296 kts 302°
2026-05-03 20:29 48.55148 3.70303 12776 ft 288 kts 300°
2026-05-03 20:29 48.56235 3.67767 12611 ft 281 kts 299°
2026-05-03 20:30 48.57313 3.65248 12277 ft 281 kts 299°
2026-05-03 20:30 48.58382 3.62755 11952 ft 280 kts 300°
2026-05-03 20:30 48.59430 3.60314 11655 ft 279 kts 299°
2026-05-03 20:30 48.60494 3.57850 11353 ft 278 kts 302°
2026-05-03 20:31 48.61899 3.55780 11011 ft 284 kts 321°
2026-05-03 20:31 48.63584 3.54197 10700 ft 285 kts 326°
2026-05-03 20:31 48.65316 3.52700 10409 ft 283 kts 327°
2026-05-03 20:31 48.67001 3.51248 10120 ft 282 kts 327°
2026-05-03 20:32 48.68734 3.49745 9811 ft 282 kts 327°
2026-05-03 20:32 48.70420 3.48278 9516 ft 281 kts 327°
2026-05-03 20:32 48.72112 3.46804 9231 ft 280 kts 327°
2026-05-03 20:32 48.73802 3.45331 8945 ft 279 kts 327°
2026-05-03 20:33 48.75485 3.43863 8654 ft 278 kts 327°
2026-05-03 20:33 48.77157 3.42409 8379 ft 276 kts 327°
2026-05-03 20:33 48.78848 3.40934 7939 ft 282 kts 327°
2026-05-03 20:33 48.80557 3.39439 7624 ft 281 kts 327°
2026-05-03 20:34 48.82270 3.37943 7450 ft 276 kts 327°
2026-05-03 20:34 48.83941 3.36485 7319 ft 273 kts 327°
2026-05-03 20:34 48.85595 3.35047 7217 ft 272 kts 327°
2026-05-03 20:34 48.87247 3.33616 7109 ft 272 kts 326°
2026-05-03 20:35 48.88932 3.32152 6983 ft 272 kts 326°
2026-05-03 20:35 48.90574 3.30727 6850 ft 271 kts 326°
2026-05-03 20:35 48.92020 3.28955 6709 ft 264 kts 306°
2026-05-03 20:35 48.93136 3.26738 6557 ft 264 kts 302°
2026-05-03 20:36 48.94230 3.24462 6353 ft 263 kts 302°
2026-05-03 20:36 48.95311 3.22200 6127 ft 262 kts 302°
2026-05-03 20:36 48.96371 3.19960 5899 ft 261 kts 302°
2026-05-03 20:36 48.97442 3.17684 5670 ft 260 kts 302°
2026-05-03 20:37 48.98489 3.15438 5445 ft 258 kts 299°
2026-05-03 20:37 48.99313 3.13086 5283 ft 250 kts 292°
2026-05-03 20:37 49.00052 3.10711 5261 ft 240 kts 292°
2026-05-03 20:37 49.00735 3.08405 5099 ft 235 kts 286°
2026-05-03 20:38 49.01155 3.06065 5082 ft 223 kts 279°
2026-05-03 20:38 49.01398 3.03785 5074 ft 214 kts 273°
2026-05-03 20:38 49.01487 3.01518 5031 ft 214 kts 268°
2026-05-03 20:38 49.01464 2.99254 4961 ft 213 kts 265°
2026-05-03 20:39 49.01385 2.96979 4887 ft 209 kts 264°
2026-05-03 20:39 49.01284 2.94802 4795 ft 203 kts 263°
2026-05-03 20:39 49.01171 2.92652 4527 ft 204 kts 263°
2026-05-03 20:39 49.01054 2.90479 4192 ft 206 kts 263°
2026-05-03 20:40 49.00939 2.88315 3909 ft 205 kts 264°
2026-05-03 20:40 49.00825 2.86144 3641 ft 204 kts 264°
2026-05-03 20:40 49.00715 2.83997 3368 ft 204 kts 265°
2026-05-03 20:40 49.00605 2.81841 3090 ft 197 kts 265°
2026-05-03 20:41 49.00502 2.79837 2840 ft 184 kts 264°
2026-05-03 20:41 49.00402 2.77893 2594 ft 181 kts 264°
2026-05-03 20:41 49.00305 2.75992 2349 ft 180 kts 264°
2026-05-03 20:41 49.00206 2.74070 2121 ft 181 kts 264°
2026-05-03 20:42 49.00110 2.72198 1885 ft 171 kts 264°
2026-05-03 20:42 49.00019 2.70449 1669 ft 161 kts 264°
2026-05-03 20:42 48.99932 2.68770 1438 ft 155 kts 263°
2026-05-03 20:42 48.99850 2.67176 1246 ft 143 kts 263°
2026-05-03 20:43 48.99771 2.65669 1064 ft 140 kts 263°
2026-05-03 20:43 48.99693 2.64166 869 ft 140 kts 263°
2026-05-03 20:43 48.99614 2.62658 673 ft 140 kts 263°
2026-05-03 20:43 48.99535 2.61172 477 ft 140 kts 263°
2026-05-03 20:44 48.99458 2.59654 329 ft 136 kts 263°
2026-05-03 20:44 48.99390 2.58424 328 ft 93 kts 265°
2026-05-03 20:44 48.99354 2.57742 330 ft 41 kts 265°
2026-05-03 20:44 48.99370 2.57378 330 ft 31 kts 283°
2026-05-03 20:45 48.99429 2.57048 332 ft 32 kts 284°
2026-05-03 20:45 48.99467 2.56821 333 ft 13 kts 283°
2026-05-03 20:45 48.99477 2.56714 333 ft 9 kts 285°
2026-05-03 20:45 48.99531 2.56640 333 ft 12 kts 346°
2026-05-03 20:46 48.99630 2.56621 333 ft 15 kts 355°
2026-05-03 20:46 48.99748 2.56608 335 ft 17 kts 356°
2026-05-03 20:46 48.99850 2.56598 337 ft 8 kts 356°
2026-05-03 20:46 48.99914 2.56635 337 ft 11 kts 59°
2026-05-03 20:47 48.99929 2.56776 337 ft 14 kts 86°
2026-05-03 20:47 48.99936 2.56949 337 ft 17 kts 87°
2026-05-03 20:47 48.99947 2.57152 336 ft 20 kts 86°
2026-05-03 20:47 48.99961 2.57387 336 ft 22 kts 85°
2026-05-03 20:48 48.99974 2.57637 336 ft 24 kts 86°
2026-05-03 20:48 48.99988 2.57912 333 ft 27 kts 85°
2026-05-03 20:48 49.00004 2.58214 334 ft 29 kts 86°
2026-05-03 20:48 49.00021 2.58524 334 ft 22 kts 85°
2026-05-03 20:49 49.00030 2.58687 333 ft 16 kts 86°
2026-05-03 20:49 49.00040 2.58841 333 ft 11 kts 69°
2026-05-03 20:49 49.00117 2.58893 333 ft 14 kts
2026-05-03 20:49 49.00198 2.58883 334 ft 8 kts 355°
2026-05-03 20:50 49.00243 2.58888 335 ft 5 kts 34°
2026-05-03 20:50 49.00258 2.58935 335 ft 5 kts 79°
2026-05-03 20:50 49.00261 2.58978 335 ft 4 kts 84°
2026-05-03 20:50 49.00263 2.59001 335 ft 0 kts 84°